Погода в Жангале

Поиск расширенной информации на нашем сайте:

Полезная информация:

Новости сайта



02.01.2020
Опубликован Долгосрочный прогноз погоды по городам России и ближнего зарубежья на январь 2020 года.
Карты: Прогноз на январь и февраль 2020 года, Сравнение прогнозируемой аномалии приземной температуры воздуха на январь 2020 года по разным моделям.




Погода в Жангале - сегодня

Время (UTC), дата Ветер
(°,м/с) 
Видим.   Явления Облачность Т
(°С)
Тd
(°С)
f(%) Тe
(°С)
Pmin
(гПа)
dP
(гПа)
Po
(мм)
O2
(г/м3)
Тmin Tmax R s Состояние
почвы
12 22.10.21 270 (З) 12{15}  20000 м    5/3 600 м верхняя 
[Sc|Ci fib]
+18.2 +3.3 37 +17  1015.4  -0.7  761  287           
15 22.10.21 250 (З) н/о    3/0 верхняя 
[Ci fib]
+13.4 +2.1 46 +13  1016  0.6  761  292    +18.5       
18 22.10.21 250 (З) н/о    ясно 
+12.1 +1.1 47 +11  1016.6  0.6  762  294    +18.5       
21 22.10.21 250 (З) н/о    ясно 
+8.7 +1.6 61 +8  1017.1  0.5  762  297           
00 23.10.21 240 (ЮЗ) н/о    3/0 верхняя 
[Ci fib]
+8.4 +4.8 78 +7  1017.1  762  297           
03 23.10.21 240 (ЮЗ) 20000 м    3/0 верхняя 
[Ci fib]
+6.5 +4.1 85 +6  1017.6  0.5  750  295           
06 23.10.21 230 (ЮЗ) 20000 м    3/0 средняя, верхняя 
[Ac trans|Ci fib]
+11.1 +8.4 83 +10  1018  0.4  763  294  +6.5         
09 23.10.21 240 (ЮЗ) 20000 м    4/0 средняя, верхняя 
[As op|Ci fib]
+16.4 +3.8 43 +17  1019  764  290           
12 23.10.21 340 (С) 20000 м    6/0 средняя, верхняя 
[Ac trans|Ci fib]
+19.8 +3.7 34 +21  1018.2  -0.8  763  286           
15 23.10.21 210 (ЮЗ) н/о    9/0 средняя, верхняя 
[Ac As|Ci]
+12.6 +7.2 70 +12  1017.6  -0.6  763  293    +20.6       
18 23.10.21 230 (ЮЗ) н/о    4/0 верхняя 
[Ci fib]
+10.2 +7 81 +9  1017.3  -0.3  762  295    +20.6       
21 23.10.21 230 (ЮЗ) н/о    5/0 верхняя 
[Ci]
+9.6 +8.6 93 +9  1016.3  -1  762  295           
00 24.10.21 250 (З) н/о    8/0 верхняя 
[Ci]
+9.5 +8.3 92 +8  1015.4  -0.9  761  295           
03 24.10.21 250 (З) 20000 м    5/3 600 м верхняя 
[Sc|Ci]
+9 +7.5 90 +8  1015.6  0.2  761  296           
06 24.10.21 300 (СЗ) 20000 м    9/0 средняя, верхняя 
[Ac trans|Ci]
+10.6 +8.1 85 +11  1016.6  762  294  +9         
09 24.10.21 320 (СЗ) 10 км  слаб. ливневой дождь  10/10 300 м кучево-дожд. 
[Cb cap]
+12.2 +10.3 88 +13  1017.1  0.5  762  292           
12 24.10.21 290 (З) 20000 м  в посл. час ливневой дождь  10/8 600 м средняя 
[Sc|As op]
+12 +10.8 92 +14  1017.1  762  292           
15 24.10.21 290 (З) н/о    10/10 600 м 
[Sc]
+10.4 +10 97 +12  1017.2  0.1  762  294    +13  0.9     
18 24.10.21 030 (СВ) н/о    10/10 600 м 
[Sc]
+9.4 +6.4 82 +9  1016.9  -0.3  762  296    +13  0.9     
21 24.10.21 020 (С) н/о    10/10 600 м 
[Sc]
+7.8 +4.1 77 +7  1017.5  0.6  763  298           
00 25.10.21 360 (С) н/о  {ливн. осадки}  10/10 300 м кучево-дожд. 
[Cb cap]
+7.2 +4.4 82 +7  1017  -0.5  762  299           
03 25.10.21 300 (СЗ) н/о    10/10 600 м 
[Sc]
+6.2 +5.3 94 +7  1016.9  -0.1        0.0     
06 25.10.21 350 (С) 20000 м    3/0 средняя, верхняя 
[Ac trans|Ci fib]
+6.4 +4 85 +6  1018.2  1.3  763  300  +6.2    0.0     
09 25.10.21 350 (С) 20000 м    8/8 600 м 
[Cu med, cong]
+9.3 +0.9 56 +8  1018.8  0.6  764  297           
12 25.10.21 340 (С) 20000 м    6/6 600 м кучево-дожд. 
[Cb calv]
+7.6 +2 68 +6  1020.5  1.7  765  300           
Время (UTC), дата Ветер
(°,м/с) 
Видим.   Явления Облачность Т
(°С)
Тd
(°С)
f(%) Тe
(°С)
Pmin
(гПа)
dP
(гПа)
Po
(мм)
O2
(г/м3)
Тmin Tmax R s Состояние
почвы

Для получения пояснительной информации подведите курсор к названию столбца.

ПОГОДА в Жангале - архив

Всё, что Вы хотите узнать о погоде в Жангале - удобно и подробно!

Выберите нужную дату (начиная с 1 января 2019* года) и нажмите кнопку "Найти".
Будут отображены архивные сводки погоды по пункту Жангала, начиная с указанной даты.


Отображать данные в формате CSV (для использования в таблицах Excel)


Внимание! Наш архив погоды предназначен исключительно для личного некоммерческого использования в познавательных целях. Если Вам необходимы официальные справки о состоянии погоды (для производственных, юридических, коммерческих и т.п. целей), обращайтесь в органы Росгидромета.

*Примечание: данная дата относится к архиву по метеостанциям СССР (Россия, СНГ, Балтия).
Архив по метеостанциям Зарубежной Европы и Азии (кроме Китая) хранится 10 дней, по другим регионам земного шара (Китай, Африка, Америка, Австралия, Океания) - 1 день.

Жангала - район местоположения метеостанции


Название, широта, долгота, высота метеостанции:
Жангала 49.2°ш. 50.3°д. 7 м над ур. моря [Казахстан]

Дополнительная информация

В oтличие oт бoльшинства пoгoдных сайтoв мы публикуем пoдрoбную метеoинфoрмацию в детальнoм прoфессиoнальнoм фoрмате.

Характеристики температуры и влажнoсти вoздуха измеряются на высoте 2 м в тени вдали oт зданий и деревьев.
Скoрoсть ветра измеряется на высoте 10 м (на урoвне рoста челoвека скoрoсть ветра ниже в 1.5-2 раза). Если метеoстанция нахoдится в гoрoде или в лесу, тo скoрoсть ветра занижена на 2-4 м/с пo сравнению с oткрытым местoм. Скoрoсть ветра над акватoриями крупных рек и oзёр, а также на вершинах хoлмoв на 2-5 м/с выше, чем в oбычных услoвиях.
Атмoсфернoе давление в разных тoчках местнoсти мoжет значительнo oтличаться oт давления на метеoстанции, в зависимoсти oт услoвий рельефа (при пoдъёме на 10 м давление пoнижается примернo на 1 мм рт.ст.).